Tchien Airport

Jump to: basic info | weather | comments

Related pages: nearby airports | nearby navaids | notams | map

Basic information (top)

Codes: THC GLTN
Location: lon 6.045650, lat -8.138723, elev 790 ft / 241 m msl
Status: small_airport
Scheduled airline service: no
Links: Wikipedia Mobile

Weather (top)

Current conditions for Man Airport 81nm (149km) NNE (rec'd 2013/11/21 04:00Z):

DIMN 210400Z NOL

Airport forecast for Roberts International Airport 133nm (247km) W (rec'd 2015/01/26 18:51Z):

TAF GLRB 261600Z 2618/2724 28010KT 9999 BKN018 FEW027 CB FM 262000 30010KT 8000 TS/TSRA SCT003 BKN013 FEW023CB 
      TEMPO 2702/2707 02006KT 7000

Latest comments (top)

No comments yet for Tchien Airport

More... (top)

See also NOTAMs and nearby airports and navaids, or visit the Tchien Airport page at the main OurAirports website..